Location: PSU-Greenbush Astrophysical Observatory
(37.5140°N, 94.9880°W)
Time: 14:28:42
(UTC-06:00)

Transit 2A - Pass Details

Date: 26 January 2020
Orbit: 600 x 959 km, 66.7° (Epoch: 22 February)

Event Time Altitude Azimuth Distance (km) Brightness Sun altitude
Rises 04:59:00 0° 333° (NNW) 3,018 - -29.6°
Reaches altitude 10° 05:01:13 10° 335° (NNW) 2,147 - -29.1°
Maximum altitude 05:06:06 79° 62° (ENE) 760 - -28.2°
Exits shadow 05:06:28 74° 109° (ESE) 778 6.0 -28.1°
Drops below altitude 10° 05:11:32 10° 149° (SSE) 2,371 8.9 -27.1°
Sets 05:14:05 0° 151° (SSE) 3,357 9.8 -26.6°
